ZHEDA PIXING 3A (45795 NORAD) Tracking and Keplerian Element Data

This shows tracking and keplerian element data for the satellite.

Feedback or suggestion? Click here.




ElementValue
Catalog45795
NameZHEDA PIXING 3A
Epoch Orbit712
Epoch Day216.18846245
Epoch Year2020
RAAN336.6454
Inclination97.3264
Eccentricity0.0015791
Argument of Perigee104.1084
Mean Anonmoly14.1891
Mean Motion15.23902181
Decay Rate5.08E-06
L11 45795U 20039B 20216.18846245 .00000508 00000-0 23882-4 0 9993
L22 45795 97.3264 336.6454 0015791 104.1084 14.1891 15.23902181 7121

Live tracking and technical data element details for ZHEDA PIXING 3A (NORAD 45795). ZHEDA PIXING 3A can be tracked NOW for your location showing map with azimuth and elevation plus other details from your city location.

Track the satellite on the map from your city or location and see movement details for azimuth, elevation, latitude, longitude, range, height, and movement on the map or in text.







IsCatalogInMostPopularTable: catalog: 45795, numindb: 18
Update: records affected: 1



GetName: 45795 ZHEDA PIXING 3A

Hit Count: updated at: Mon, 03 Aug 2020 17:21:21 GMT